[[{"header":{"parameterUnit":"m.s-1","parameterCategory":1,"la1":30.2991,"la2":30.254,"lo1":-89.0895,"lo2":-89.0444,"dy":0.0017,"dx":0.0017,"nx":28,"ny":28,"refTime":"2024-06-05T09:00:00:Z","depth":0,"parameterNumber":2,"parameterNumberName":"U-component_of_WINDS"},"data":[0,0,0,0,0,0,0,0,0,0,0,0,0,0,0,0,0,0,0,0,0,0,0,0,0,0,0,0,0,0,0,0,0,0,0,0,0,0,0,0,0,0,0,0,0,0,0,0,0,0,0,0,0,0,0,0,0,0,1.6164,1.6164,0,1.622,1.622,1.6221,1.6207,1.6206,1.6205,1.6204,1.6261,1.6264,1.6266,0,0,0,0,0,0,0,0,0,0,0,0,0,1.6047,1.6049,1.6164,1.6165,1.6165,1.6219,1.622,1.6221,1.6207,1.6206,1.6205,1.6203,1.626,1.6263,1.6266,0,0,0,0,0,0,0,0,0,0,0,0,0,1.6099,1.605,1.6164,1.6165,1.6166,1.6219,1.622,1.6221,1.6207,1.6206,1.6204,1.6203,1.6259,1.6263,1.6267,1.6323,0,0,1.6278,1.628,0,0,0,0,0,0,0,0,1.6097,1.6104,1.6164,1.6165,1.6166,1.6205,1.62,1.6255,1.6208,1.6192,1.6204,1.6202,1.6244,1.6249,1.6263,1.6326,1.6328,1.6279,1.6281,1.6283,1.6284,0,0,0,0,0,0,0,1.6093,1.6101,1.6186,1.6165,1.6166,1.6163,1.6169,1.621,1.6226,1.6193,1.6192,1.6199,1.6244,1.6259,1.6264,1.6329,1.6279,1.6282,1.6284,1.6286,1.6442,1.6444,0,0,0,0,0,0,1.6088,1.6098,1.6184,1.6188,1.6126,1.6166,1.6173,1.6194,1.6226,1.6229,1.62,1.6198,1.6253,1.6259,1.6266,1.6335,1.6283,1.6286,1.6288,1.644,1.6442,1.6444,0,0,0,0,0,0,1.6086,1.6096,1.6182,1.6143,1.6153,1.617,1.6194,1.6196,1.6211,1.6231,1.6234,1.6213,1.6252,1.6261,1.6309,1.6336,1.6288,1.6291,1.6438,1.6441,1.6443,1.6472,0,0,0,0,0,0,1.6083,1.6095,1.6117,1.6143,1.6156,1.6224,1.6196,1.6198,1.6217,1.6215,1.6244,1.6247,1.6252,1.6303,1.6313,1.6341,1.6294,1.6436,1.6439,1.6442,1.6469,1.6475,1.6481,0,0,0,0,0,1.6079,1.6122,1.6118,1.6128,1.6182,1.6225,1.6232,1.6237,1.622,1.6241,1.6255,1.6246,1.6332,1.6309,1.6319,1.6348,1.6434,1.6438,1.6442,1.6466,1.6474,1.6481,0,0,0,0,0,0,1.6098,1.6126,1.6121,1.6175,1.6198,1.6223,1.625,1.6245,1.6274,1.6271,1.6275,1.6282,1.6332,1.6345,1.6318,1.6405,1.638,1.6387,1.6395,1.6403,1.6409,1.6405,1.6298,0,0,0,0,0,1.6109,1.6141,1.6163,1.6209,1.622,1.6234,1.6252,1.6254,1.6278,1.6288,1.6305,1.6329,1.6361,1.6383,1.6414,1.647,1.6477,1.6496,1.6502,1.6507,1.6513,1.6545,1.6554,1.6458,1.6458,1.6458,0,0,1.6131,1.615,1.617,1.6213,1.6231,1.6265,1.6242,1.6278,1.6304,1.6294,1.6341,1.6354,1.6381,1.6434,1.6459,1.6447,1.6541,1.6512,1.6516,1.6519,1.655,1.6559,1.6567,1.6461,1.646,1.646,0,0,1.6188,1.6206,1.6246,1.6265,1.6293,1.6301,1.6311,1.6337,1.6346,1.6393,1.6386,1.6417,1.6472,1.6492,1.651,1.6577,1.657,1.6586,1.6619,1.665,1.6658,1.6665,1.6689,1.6698,1.6592,1.6592,1.6592,0,1.6212,1.6263,1.6267,1.6305,1.6324,1.6317,1.6358,1.6376,1.6413,1.6426,1.6413,1.6483,1.6501,1.6559,1.6576,1.659,1.6602,1.6583,1.6657,1.6663,1.667,1.6693,1.6702,1.6594,1.6594,1.6594,1.6593,0,1.6292,1.6327,1.6356,1.6392,1.6415,1.6454,1.6464,1.6487,1.6487,1.6497,1.6546,1.6567,1.6603,1.6617,1.6617,1.6676,1.6668,1.6655,1.6631,1.6681,1.6703,1.6712,1.6597,1.6596,1.6595,1.6595,0,0,1.6363,1.6401,1.6412,1.6428,1.6459,1.6487,1.6526,1.6561,1.6581,1.6606,1.664,1.6688,1.6677,1.6697,1.6699,1.6727,1.6779,1.6711,1.6712,1.6724,1.6846,1.6856,1.6866,1.6775,1.6777,1.6778,1.6844,0,1.6424,1.6493,1.6498,1.656,1.6593,1.6587,1.6622,1.6644,1.6655,1.6685,1.6697,1.6732,1.6714,1.6726,1.6753,1.6767,1.6804,1.6762,1.6807,1.6808,1.6801,1.6878,1.6888,1.6949,1.6853,1.6855,1.6856,0,1.6504,1.6533,1.6598,1.6625,1.664,1.667,1.6703,1.6732,1.6758,1.6764,1.6787,1.6786,1.6827,1.6801,1.6858,1.6829,1.6848,1.6858,1.686,1.6865,1.6835,1.6885,1.6969,1.6978,1.6869,1.6868,1.6867,0,1.6551,1.6605,1.6652,1.6666,1.6699,1.6721,1.6735,1.676,1.6781,1.681,1.6824,1.6857,1.6876,1.6902,1.691,1.689,1.6967,1.6942,1.6974,1.6974,1.6991,1.699,1.708,1.7002,1.7002,1.7002,1.7002,0,1.6619,1.6659,1.6674,1.6702,1.6748,1.6754,1.6799,1.6812,1.6835,1.6866,1.6863,1.6893,1.6902,1.6934,1.694,1.6987,1.6995,1.7002,1.7003,1.7003,1.7002,1.7015,1.7011,1.7004,1.7004,1.7003,1.7003,0,1.6678,1.6689,1.674,1.6767,1.6775,1.6807,1.683,1.6858,1.6869,1.6909,1.6919,1.6936,1.6973,1.6984,1.7029,1.7033,1.7088,1.7086,1.708,1.708,1.7112,1.7109,1.7214,1.7228,1.7141,1.7142,1.7142,0,1.6721,1.6752,1.6783,1.6804,1.6819,1.6853,1.6875,1.6882,1.6905,1.6937,1.6962,1.6999,1.7029,1.7089,1.7105,1.714,1.7138,1.7172,1.7143,1.7142,1.714,1.7138,1.7141,1.7178,1.7179,1.718,1.718,0,1.6797,1.6801,1.6832,1.6865,1.6891,1.6918,1.6944,1.6961,1.6972,1.6998,1.7036,1.7059,1.7105,1.7142,1.7178,1.7193,1.7189,1.7189,1.7199,1.7199,1.7194,1.7198,1.7095,1.7187,1.7186,1.7186,1.7185,1.7185,1.685,1.6878,1.6904,1.6939,1.6959,1.6983,1.7011,1.7025,1.7057,1.7095,1.7098,1.7139,1.7166,1.7212,1.723,1.7263,1.7253,1.7267,1.727,1.7274,1.7277,1.7189,1.7269,1.7269,1.7269,1.7269,1.7269,0,1.6926,1.6942,1.6974,1.7011,1.7038,1.7032,1.706,1.7084,1.7121,1.7146,1.7175,1.722,1.7256,1.7275,1.7311,1.7334,1.7333,1.7344,1.7342,1.7346,1.7283,1.7272,1.7344,1.7344,1.7344,1.7344,1.7344,1.7344,1.6968,1.7015,1.7023,1.708,1.7096,1.7137,1.7154,1.7177,1.7197,1.7246,1.7276,1.7289,1.7312,1.735,1.7383,1.7388,1.7402,1.7413,1.7417,1.7358,1.735,1.7343,1.7332,1.7416,1.7416,1.7478,1.7478,1.7479]},{"header":{"parameterUnit":"m.s-1","parameterCategory":1,"la1":30.2991,"la2":30.254,"lo1":-89.0895,"lo2":-89.0444,"dy":0.0017,"dx":0.0017,"nx":28,"ny":28,"refTime":"2024-06-05T09:00:00:Z","depth":0,"parameterNumber":3,"parameterNumberName":"V-component_of_WINDS"},"data":[0,0,0,0,0,0,0,0,0,0,0,0,0,0,0,0,0,0,0,0,0,0,0,0,0,0,0,0,0,0,0,0,0,0,0,0,0,0,0,0,0,0,0,0,0,0,0,0,0,0,0,0,0,0,0,0,0,0,-1.7723,-1.7724,0,-1.7771,-1.7771,-1.7772,-1.7759,-1.7758,-1.7757,-1.7757,-1.7804,-1.7806,-1.7808,0,0,0,0,0,0,0,0,0,0,0,0,0,-1.7622,-1.7624,-1.7723,-1.7724,-1.7725,-1.7771,-1.7771,-1.7772,-1.7759,-1.7758,-1.7757,-1.7756,-1.7803,-1.7806,-1.7808,0,0,0,0,0,0,0,0,0,0,0,0,0,-1.7667,-1.7625,-1.7723,-1.7724,-1.7724,-1.777,-1.7771,-1.7772,-1.776,-1.7758,-1.7757,-1.7756,-1.7802,-1.7806,-1.7809,-1.7857,0,0,-1.7818,-1.782,0,0,0,0,0,0,0,0,-1.7665,-1.7671,-1.7723,-1.7724,-1.7725,-1.7758,-1.7753,-1.78,-1.776,-1.7746,-1.7756,-1.7755,-1.779,-1.7794,-1.7806,-1.7859,-1.7861,-1.7819,-1.7821,-1.7822,-1.7823,0,0,0,0,0,0,0,-1.7662,-1.7669,-1.7742,-1.7724,-1.7725,-1.7722,-1.7727,-1.7762,-1.7775,-1.7747,-1.7747,-1.7752,-1.779,-1.7803,-1.7807,-1.7862,-1.7819,-1.7822,-1.7824,-1.7825,-1.7956,-1.7958,0,0,0,0,0,0,-1.7658,-1.7666,-1.7741,-1.7743,-1.7691,-1.7725,-1.773,-1.7748,-1.7775,-1.7778,-1.7754,-1.7752,-1.7798,-1.7803,-1.7808,-1.7866,-1.7822,-1.7825,-1.7827,-1.7955,-1.7957,-1.7958,0,0,0,0,0,0,-1.7656,-1.7665,-1.7739,-1.7705,-1.7714,-1.7728,-1.7749,-1.775,-1.7763,-1.778,-1.7782,-1.7764,-1.7797,-1.7804,-1.7845,-1.7867,-1.7827,-1.7829,-1.7953,-1.7955,-1.7957,-1.7982,0,0,0,0,0,0,-1.7653,-1.7664,-1.7682,-1.7705,-1.7716,-1.7774,-1.775,-1.7752,-1.7769,-1.7767,-1.779,-1.7793,-1.7796,-1.784,-1.7848,-1.7871,-1.7832,-1.7951,-1.7954,-1.7957,-1.7979,-1.7984,-1.7989,0,0,0,0,0,-1.7649,-1.7687,-1.7683,-1.7692,-1.7739,-1.7776,-1.7782,-1.7785,-1.7771,-1.7789,-1.78,-1.7792,-1.7864,-1.7844,-1.7853,-1.7878,-1.7949,-1.7953,-1.7956,-1.7976,-1.7983,-1.7989,0,0,0,0,0,0,-1.7666,-1.769,-1.7686,-1.7733,-1.7752,-1.7774,-1.7797,-1.7793,-1.7817,-1.7814,-1.7817,-1.7823,-1.7864,-1.7875,-1.7853,-1.7925,-1.7904,-1.791,-1.7917,-1.7923,-1.7928,-1.7925,-1.7835,0,0,0,0,0,-1.7676,-1.7704,-1.7723,-1.7762,-1.7772,-1.7783,-1.7799,-1.78,-1.7821,-1.7829,-1.7842,-1.7862,-1.7889,-1.7907,-1.7933,-1.7981,-1.7985,-1.8002,-1.8007,-1.8011,-1.8016,-1.8041,-1.8049,-1.797,-1.797,-1.797,0,0,-1.7695,-1.7711,-1.7729,-1.7766,-1.7781,-1.781,-1.779,-1.7821,-1.7842,-1.7833,-1.7873,-1.7884,-1.7906,-1.7951,-1.7971,-1.7961,-1.8039,-1.8016,-1.8019,-1.8021,-1.8046,-1.8053,-1.806,-1.7972,-1.7972,-1.7971,0,0,-1.7744,-1.776,-1.7794,-1.781,-1.7833,-1.784,-1.7849,-1.7871,-1.7878,-1.7918,-1.7911,-1.7937,-1.7983,-1.7999,-1.8014,-1.807,-1.8063,-1.8078,-1.8105,-1.813,-1.8137,-1.8142,-1.8162,-1.8169,-1.8083,-1.8083,-1.8083,0,-1.7765,-1.7808,-1.7812,-1.7844,-1.786,-1.7854,-1.7888,-1.7903,-1.7934,-1.7946,-1.7934,-1.7992,-1.8007,-1.8055,-1.8069,-1.8081,-1.809,-1.8075,-1.8136,-1.8141,-1.8146,-1.8165,-1.8172,-1.8084,-1.8084,-1.8084,-1.8084,0,-1.7832,-1.7862,-1.7887,-1.7917,-1.7936,-1.7969,-1.7978,-1.7997,-1.7997,-1.8005,-1.8045,-1.8063,-1.8092,-1.8104,-1.8104,-1.8152,-1.8145,-1.8135,-1.8114,-1.8155,-1.8173,-1.818,-1.8087,-1.8086,-1.8086,-1.8085,0,0,-1.7892,-1.7925,-1.7934,-1.7947,-1.7973,-1.7996,-1.8029,-1.8058,-1.8074,-1.8096,-1.8123,-1.8163,-1.8154,-1.817,-1.8172,-1.8194,-1.8237,-1.8181,-1.8181,-1.819,-1.8291,-1.8298,-1.8306,-1.8233,-1.8234,-1.8236,-1.8289,0,-1.7944,-1.8001,-1.8006,-1.8058,-1.8086,-1.808,-1.8109,-1.8128,-1.8137,-1.8161,-1.8171,-1.8199,-1.8185,-1.8194,-1.8216,-1.8227,-1.8257,-1.8223,-1.8258,-1.8259,-1.8252,-1.8315,-1.8323,-1.8372,-1.8295,-1.8297,-1.8298,0,-1.8011,-1.8035,-1.809,-1.8112,-1.8123,-1.8149,-1.8176,-1.82,-1.8221,-1.8226,-1.8244,-1.8243,-1.8277,-1.8255,-1.8301,-1.8278,-1.8293,-1.83,-1.8302,-1.8305,-1.828,-1.8319,-1.8388,-1.8395,-1.8308,-1.8308,-1.8307,0,-1.8049,-1.8095,-1.8134,-1.8145,-1.8172,-1.819,-1.8202,-1.8222,-1.824,-1.8263,-1.8274,-1.8301,-1.8316,-1.8337,-1.8343,-1.8327,-1.8389,-1.8368,-1.8393,-1.8393,-1.8406,-1.8405,-1.8477,-1.8416,-1.8416,-1.8416,-1.8416,0,-1.8105,-1.8139,-1.8151,-1.8175,-1.8212,-1.8217,-1.8254,-1.8265,-1.8283,-1.8309,-1.8306,-1.833,-1.8337,-1.8362,-1.8367,-1.8404,-1.8411,-1.8416,-1.8417,-1.8416,-1.8415,-1.8425,-1.8421,-1.8418,-1.8418,-1.8417,-1.8417,0,-1.8154,-1.8163,-1.8205,-1.8227,-1.8234,-1.826,-1.8279,-1.8302,-1.831,-1.8343,-1.8351,-1.8364,-1.8394,-1.8402,-1.8438,-1.8441,-1.8485,-1.8483,-1.8477,-1.8477,-1.8502,-1.8499,-1.8583,-1.8594,-1.8526,-1.8527,-1.8528,0,-1.8189,-1.8214,-1.824,-1.8257,-1.8269,-1.8297,-1.8314,-1.8321,-1.8339,-1.8365,-1.8385,-1.8414,-1.8438,-1.8486,-1.8498,-1.8526,-1.8524,-1.8551,-1.8528,-1.8526,-1.8524,-1.8522,-1.8524,-1.8555,-1.8556,-1.8557,-1.8557,0,-1.825,-1.8253,-1.8279,-1.8306,-1.8327,-1.8349,-1.8369,-1.8384,-1.8393,-1.8414,-1.8444,-1.8462,-1.8499,-1.8528,-1.8556,-1.8568,-1.8564,-1.8564,-1.8572,-1.8571,-1.8566,-1.8568,-1.8489,-1.8562,-1.8562,-1.8561,-1.8561,-1.8561,-1.8292,-1.8314,-1.8336,-1.8364,-1.8381,-1.84,-1.8423,-1.8434,-1.846,-1.849,-1.8492,-1.8525,-1.8546,-1.8583,-1.8596,-1.8622,-1.8614,-1.8625,-1.8627,-1.863,-1.8631,-1.8563,-1.8627,-1.8627,-1.8627,-1.8627,-1.8627,0,-1.8352,-1.8366,-1.8392,-1.8421,-1.8444,-1.8439,-1.8462,-1.8481,-1.851,-1.8529,-1.8553,-1.8588,-1.8616,-1.8632,-1.866,-1.8677,-1.8676,-1.8684,-1.8683,-1.8686,-1.8637,-1.8628,-1.8685,-1.8685,-1.8685,-1.8685,-1.8685,-1.8685,-1.8386,-1.8424,-1.843,-1.8476,-1.8489,-1.8521,-1.8535,-1.8553,-1.8569,-1.8608,-1.8632,-1.8642,-1.866,-1.8689,-1.8715,-1.8719,-1.8729,-1.8738,-1.8741,-1.8695,-1.8689,-1.8683,-1.8674,-1.874,-1.874,-1.8787,-1.8787,-1.8787]}]]